STARLINK-11289 [DTC]

Last updated on Sun Oct 06 2024 00:02:04 GMT+0000 (Coordinated Universal Time)

1 60991U 24158B 24279.43973801 .00005177 00000+0 35592-4 0 9991 2 60991 53.1563 326.6316 0002178 37.8206 322.2968 15.76746004 5873
UTC large
Height (km)
Speed (km/s)
/
Latitude / Longitude
Inclination (degrees)
Orbital Period (minutes)
Azimuth
Elevation
Range (km)
Doppler Factor

Next 0 passes for location: London (51.5072 / 0.1276)

Sorry there are no passes over London.